Valladolid(Mil/C, Spain

7:59 PM CET on January 22, 2017 (GMT +0100)
Villanubla

Weather History for LEVD - October, 2013

Change the Weather History Date:

Friday, October 11, 2013

  Actual Average Record
Temperature  
Mean Temperature 50 °F -  
Max Temperature 57 °F - - ()
Min Temperature 42 °F - - ()
Degree Days  
Heating Degree Days 16    
Moisture  
Dew Point 43 °F    
Average Humidity 74    
Maximum Humidity 100    
Minimum Humidity 59    
Precipitation  
Precipitation 0.00 in - - ()
Sea Level Pressure  
Sea Level Pressure 30.00 in    
Wind  
Wind Speed 7 mph ()    
Max Wind Speed 12 mph    
Max Gust Speed -    
Visibility 6.2 miles    
Events      
T = Trace of Precipitation, MM = Missing Value Source: Averaged Metar Reports

Daily Weather History Graph

Daily Weather History Graph

Search for Another Location

Airport or City:

Trip Planner

Search our weather history database for the weather conditions in past years. The results will help you decide how hot, cold, wet, or windy it might be!

Date:

Astronomy

Oct. 11, 2013 Rise Set
Actual Time 8:27 AM CEST 7:44 PM CEST
Civil Twilight 7:59 AM CEST 8:12 PM CEST
Nautical Twilight 7:27 AM CEST 8:44 PM CEST
Astronomical Twilight 6:54 AM CEST 9:16 PM CEST
Moon 3:00 PM CEST (10/11) 12:05 AM CEST (10/11)
Length of Visible Light 12h 13m
Length of Day
11h 17m
Waxing Crescent, 44% of the Moon is Illuminated
Oct 11
Waxing Crescent
Oct 12
First Quarter
Oct 19
Full
Oct 27
Last Quarter
Nov 3
New

Hourly Weather History & Observations

Time (CEST) Temp. Windchill Dew Point Humidity Pressure Visibility Wind Dir Wind Speed Gust Speed Precip Events Conditions
7:00 AM 44.6 °F 41.4 °F 42.8 °F 93% 30.01 in - ENE 5.8 mph - N/A   Clear
7:30 AM 42.8 °F 38.6 °F 42.8 °F 100% 30.01 in - NE 6.9 mph - N/A   Clear
8:00 AM 42.8 °F 38.0 °F 42.8 °F 100% 30.01 in - NE 8.1 mph - N/A   Clear
8:30 AM 42.8 °F 39.3 °F 42.8 °F 100% 30.01 in - ENE 5.8 mph - N/A   Clear
9:00 AM 42.8 °F 38.6 °F 42.8 °F 100% 30.01 in - ENE 6.9 mph - N/A   Clear
9:30 AM 44.6 °F 40.7 °F 44.6 °F 100% 30.01 in - ENE 6.9 mph - N/A   Clear
10:00 AM 46.4 °F 41.9 °F 44.6 °F 93% 30.04 in - East 9.2 mph - N/A   Clear
10:30 AM 48.2 °F - 44.6 °F 87% 30.04 in - ENE 10.4 mph - N/A   Clear
11:00 AM 50.0 °F - 44.6 °F 82% 30.01 in - East 10.4 mph - N/A   Clear
11:30 AM 51.8 °F - 44.6 °F 76% 30.01 in - East 11.5 mph - N/A   Clear
12:00 PM 53.6 °F - 44.6 °F 72% 30.01 in - East 10.4 mph - N/A   Clear
12:30 PM 53.6 °F - 44.6 °F 72% 30.01 in - East 9.2 mph - N/A   Clear
1:00 PM 55.4 °F - 44.6 °F 67% 30.01 in 6.2 mi ENE 10.4 mph - N/A   Partly Cloudy
1:30 PM 55.4 °F - 42.8 °F 63% 30.01 in 6.2 mi ENE 8.1 mph - N/A   Partly Cloudy
2:00 PM 55.4 °F - 42.8 °F 63% 30.01 in 6.2 mi NE 8.1 mph - N/A   Scattered Clouds
2:30 PM 55.4 °F - 42.8 °F 63% 30.01 in 6.2 mi East 5.8 mph - N/A   Scattered Clouds
3:00 PM 57.2 °F - 42.8 °F 59% 30.01 in 6.2 mi NE 4.6 mph - N/A   Scattered Clouds
3:30 PM 57.2 °F - 44.6 °F 63% 29.98 in 6.2 mi NNE 6.9 mph - N/A   Scattered Clouds
4:00 PM 57.2 °F - 42.8 °F 59% 29.98 in 6.2 mi ENE 8.1 mph - N/A   Scattered Clouds
4:30 PM 57.2 °F - 44.6 °F 63% 29.98 in 6.2 mi ENE 6.9 mph - N/A   Scattered Clouds
5:00 PM 57.2 °F - 44.6 °F 63% 29.98 in 6.2 mi NE 5.8 mph - N/A   Scattered Clouds
5:30 PM 57.2 °F - 44.6 °F 63% 29.98 in 6.2 mi North 3.5 mph - N/A   Scattered Clouds
6:00 PM 57.2 °F - 42.8 °F 59% 29.98 in 6.2 mi North 8.1 mph - N/A   Scattered Clouds
6:30 PM 57.2 °F - 42.8 °F 59% 29.98 in 6.2 mi North 6.9 mph - N/A   Partly Cloudy
7:00 PM 57.2 °F - 42.8 °F 59% 29.98 in - North 5.8 mph - N/A   Clear
7:30 PM 55.4 °F - 42.8 °F 63% 30.01 in - NNE 9.2 mph - N/A   Clear
8:00 PM 53.6 °F - 42.8 °F 67% 30.01 in - NNE 8.1 mph - N/A   Clear
8:30 PM 50.0 °F - 41.0 °F 71% 30.01 in - NNE 4.6 mph - N/A   Clear
9:00 PM 50.0 °F - 42.8 °F 76% 30.01 in - NNE 3.5 mph - N/A   Clear
9:30 PM 48.2 °F - 41.0 °F 76% 30.01 in - NE 4.6 mph - N/A   Clear